Showing default

TJS-14, 62804

Orbit data source: Space-Track

TJS-14, 62804 is a payload satellite owned by PLA SSF (CN) in GEO that was launched on Thu, 23 Jan 2025 UTC via a CHANG ZHENG 3B launch vehicle from the Xichang Space Center, China (XSC). Payload-class satellites include a variety of spacecraft equipped with specific instruments for various scientific and technological missions. These include communications satellites like Starlink; space stations such as the ISS; scientific satellites like the Hubble; Earth observation satellites from companies like Planet Labs, Umbra, and HawkEye 360; GPS; miniature CubeSats for education and research; and military/defense satellites.

Not visible in the next 10 days
Identifier
62804, 2025-017A
Orbit
GEO
Country
Flag of CNCN / PRC
Related business
Manufacturer
SISE
Mission
Operational Defense Sigint
Bus & Motor
FY-4?, LAE
Mass
~5,000 kg wet, ~2,500 kg dry
Launch date (UTC)
2025-01-23 (8 months ago)
Launch vehicle
CHANG ZHENG 3B
Launch site
Xichang Space Center, China (XSC)
Object type
Payload
Rocket body
Debris
Shape & HBR
Box + 2 Pan, 15.0 m
Radar Cross Section
34.063 m², Large (>1 m²)

Expand to show TLE details & history
Last TLE update: 10 hours ago

TLE from 10 hours ago
0 TJS-14
1 62804U 25017A   25261.15742721  .00000094  00000-0  00000-0 0  9993
2 62804   1.4414 286.1036 0003420 326.4915 179.8240  1.00275743  2542
Epoch: 2025-09-18T03:46Z
TLE epoch observation values (Epoch: 2025-09-18T03:46:41.71Z)
Latitude
0.7763°
Longitude
18.43624°
Altitude
35,799.23 km
Speed
3.074 km/s
True Right ascension
04h 49m 43s
True Declination
0° 46' 32"
Sunlit
Object was in daylight at epoch
Visualization orbit readout
Latitude
Unknown
Longitude
Unknown
Altitude
Unknown
Speed
Unknown
Apparent Right ascension
Unknown
Apparent Declination
Unknown
Sunlit
N/A
Visualization observer readout
Local Sidereal Time
06:16:22
Azimuth
Unknown
Elevation
Unknown
Doppler factor
Unknown
Orbital elements
Apogee altitude
35,800.975 km
Perigee altitude
35,772.135 km
Semi-major axis
42,164.692 km
Eccentricity
0.00034
Inclination
1.4414°
RAAN
286.1036°
Arg. of periapsis
326.4915°
True anomaly
179.82412°
Mean anomaly
179.824°
Eccentric anomaly
179.82406°
Mean motion
0.25068 °/min
Orbital period
1,436.09 mins
BSTAR
0
Loading maneuver chart data...
Computing Atmospheric mass density...
Loading historical data...
Loading historical data...
Loading historical data...
Loading historical data...
Loading historical data...
Loading historical data...
Loading historical data...
Other satellites on launch #17 in the year 2025 (2025-01-23 UTC)

Documentation

Showing up to 5 results
|